www.pogodaiklimat.ru

Погода и климат >> Архив погоды >> Россия >> Забайкальский край >> Забайкальск


ПОГОДА в Забайкальске

  • Прогноз погоды в Забайкальске
  • Монитор погоды в Забайкальске
  • Климат города

АРХИВ ПОГОДЫ в Забайкальске

Время (UTC), дата Ветер
(напр.,м/с)
 
Видим.   Явления Облачность Т
(С)
Тd
(С)
f
(%)
Тe
(С)
Тes
(С)
Комфортность P
(гПа)
Po
(гПа)
Тmin
(С)
Tmax
(С)
R
(мм)
R24
(мм)
S
(см)
03 10.10 СЗ 6 50 км 5/5 1000 м
[Cu hum]
+2.4 -8.5 44 -3 -2 1034.3 949.9
06 10.10 СЗ 5
{10}
50 км 5/4 1000 м
[Cu hum Ci sp]
+4.3 -10.1 34 0 +2 1031.2 947.5
09 10.10 З 6
{12}
50 км 6/4 600 м
[Cb cap Ci sp]
+2.1 -10.2 40 -3 -3 1030.1 945.9
12 10.10 З 4
{12}
20 км 7 баллов -0.6 -8.7 54 -6 -6 1031.9 946.7 +4.9
15 10.10 З 5 20 км 9/9 600 м
[Cb cap]
-1.0 -8.7 56 -7 -7 1029.2 944.2
18 10.10 З 5 20 км 10/10 600 м
[Cb cap]
-2.9 -8.9 63 -9 -9 1028.7 943.2
21 10.10 СЗ 1 20 км 8/6 600 м
[Cb cap Ci sp]
-3.0 -8.9 64 -5 -5 1028.0 942.5
00 11.10 З 4
{8}
50 км 9 баллов -2.1 -9.0 59 -7 -7 1028.0 942.7 -3.7
03 11.10 З 6 50 км 9/4 600 м
[Cb cap Ci sp]
+2.5 -9.5 41 -3 -2 1025.7 942.0
06 11.10 СЗ 6
{10}
50 км 10/10 600 м
[Cb cap]
+3.5 -9.9 37 -1 -1 1023.6 940.4
09 11.10 СЗ 4
{11}
50 км 9/6 600 м
[Cb cap Ci sp]
+1.9 -10.8 38 -2 -2 1024.2 940.5
12 11.10 СЗ 1
{11}
20 км 9 баллов -1.4 -9.7 53 -3 -3 1026.3 941.3 +3.9
15 11.10 С 2 20 км 9/0
[Ci sp]
-4.8 -10.2 66 -9 -9 1026.2 940.3
18 11.10 СЗ 1 20 км 10/10 600 м
[Cb cap]
-2.7 -8.1 66 -5 -5 1024.6 939.4
21 11.10 СЗ 2 20 км 10/10 600 м
[Cb cap]
-2.9 -8.0 68 -7 -7 1023.5 938.4
00 12.10 СЗ 1
{4}
50 км 10 баллов -2.5 -7.6 68 -4 -4 1023.8 938.7 -6.1
03 12.10 С 4 50 км 9/9 600 м
[Cb cap]
+1.9 -7.7 49 -2 -2 1020.0 936.6
06 12.10 СЗ 4 50 км 10/10 600 м
[Cb cap]
+2.3 -8.5 45 -2 -2 1017.9 934.8
09 12.10 СЗ 3 50 км 10/10 600 м
[Cb cap]
+1.4 -8.7 47 -2 -2 1018.3 934.9
12 12.10 СЗ 1
{8}
20 км 10 баллов -2.0 -8.3 62 -4 -4 1020.7 936.0 +2.6
15 12.10 СЗ 1 20 км 7 баллов -5.6 -9.5 74 -8 -8 1021.9 936.0
18 12.10 СЗ 1 20 км 8/8 600 м
[Cb cap]
-4.3 -8.4 73 -6 -6 1020.8 935.5
21 12.10 СЗ 4 20 км 4/0
[Ci sp]
-6.4 -8.6 84 -13 -13 1021.7 935.7
00 13.10 С 3
{7}
50 км 7 баллов -5.5 -8.7 78 -11 -11 1023.3 937.3 -9.0
03 13.10 СЗ 6
{10}
50 км 8/3 1000 м
[Cu hum Ac lent Ci sp]
+2.5 -10.7 37 -2 -2 1020.4 937.1
06 13.10 З 8
{16}
50 км 7 баллов +4.1 -10.3 34 -1 -1 1020.2 937.3
09 13.10 СЗ 6
{16}
50 км 8/8 600 м
[Cb cap]
+2.7 -9.6 40 -2 -2 1020.0 936.8
12 13.10 СЗ 4
{16}
20 км 2 балла -2.9 -10.2 57 -8 -8 1023.9 938.7 +4.2
15 13.10 СЗ 3 20 км ясно -5.1 -10.1 68 -10 -10 1024.8 939.0
18 13.10 СЗ 4 20 км ясно -4.8 -8.7 74 -11 -11 1025.6 939.8
21 13.10 СЗ 4 20 км ясно -6.6 -8.4 87 -13 -13 1026.7 940.2
00 14.10 СЗ 4
{9}
50 км 1 балл -4.0 -6.5 83 -10 -10 1028.6 942.7 -8.7
03 14.10 С 5 50 км 1/0
[Ac lent]
+2.8 -8.6 43 -2 +1 1025.6 942.1
06 14.10 СЗ 6
{11}
50 км 6 баллов +4.7 -11.4 30 +1 +1 1025.9 942.7
09 14.10 СЗ 4
{10}
50 км 3/3 600 м
[Cb cap]
+2.6 -11.5 35 -1 -1 1025.3 941.6
12 14.10 С 1
{11}
20 км ясно -3.8 -12.4 51 -5 -5 1030.0 944.0 +4.8
15 14.10 С 2 20 км ясно -10.0 -14.3 71 -14 -14 1031.9 943.9
18 14.10 СЗ 2 20 км ясно -10.6 -14.3 74 -15 -15 1032.5 944.3
21 14.10 СЗ 2 20 км ясно -12.2 -15.1 79 -17 -17 1033.1 944.3
00 15.10 СЗ 2
{5}
50 км 6 баллов -4.5 -10.5 63 -8 -8 1031.7 945.3 -12.6
03 15.10 З 4 50 км 8/3 1000 м
[Cu med, cong Ac trans Ci fib]
+4.3 -10.1 34 +1 +2 1028.2 944.8
06 15.10 З 6 50 км 8/5 1000 м
[Cu med, cong Ci sp]
+4.0 -11.0 33 -0 0 1027.0 943.6
09 15.10 З 6
{11}
50 км 4/3 1000 м
[Cb calv Ci fib]
+1.8 -8.1 48 -4 -4 1027.7 943.7
12 15.10 З 4
{11}
20 км ясно -4.4 -10.0 65 -10 -10 1031.6 945.3 +4.9
15 15.10 З 6 20 км ясно -5.7 -11.7 63 -13 -13 1032.1 945.5
18 15.10 З 6 20 км ясно -7.0 -12.6 64 -15 -15 1032.4 945.3
21 15.10 З 6 20 км ясно -8.2 -12.6 71 -16 -16 1032.1 944.7
00 16.10 З 6
{9}
50 км ясно -4.7 -11.5 59 -12 -12 1031.8 945.3 -8.6
03 16.10 СЗ 6 50 км ясно +1.2 -10.2 42 -4 -2 1029.0 944.7
06 16.10 СЗ 8-11
{13}
50 км ясно +3.1 -10.7 36 -2 -2 1027.4 943.8
09 16.10 СЗ 7-10
{12}
50 км ясно +0.5 -14.3 32 -5 -5 1029.4 944.9
12 16.10 С 4
{13}
20 км ясно -7.0 -18.0 41 -13 -13 1035.5 948.0 +3.4
15 16.10 С 2 20 км ясно -11.1 -18.5 54 -16 -16 1037.6 948.8
18 16.10 СЗ 1 20 км ясно -12.5 -19.4 56 -15 -15 1038.4 949.0
21 16.10 С 3 20 км ясно -14.3 -19.6 64 -21 -21 1039.0 949.0
00 17.10 С 1
{5}
50 км ясно -10.8 -18.1 55 -13 -12 1038.3 949.3 -15.2

 

Местоположение метеостанции Забайкальск (Забайкальский край, Россия): широта 49.63 долгота 117.30 высота над уровнем моря 694 м.

В архиве по умолчанию представлена погода в Забайкальске за последнюю неделю. Архивные данные за месяц целиком и за предыдущие месяцы, начиная с января 2011 года, Вы можете получить, выбрав интересующий диапазон дат из раскрывающегося списка и нажав кнопку "Ввод!".

Внимание! Время в таблицах - всемирное. Для получения местного времени необходимо прибавить поправку, которая в Забайкальске равна 9 ч.

Смотрите также архив погоды в соседних городах и на ближайших метеорологических станциях:

Погода в Кайластуе (Забайкальский край, Россия) (75 км)
Погода в Борзе (Забайкальский край, Россия) (103 км)
Погода в Xin Barag Youqi (Китай) (113 км)
Погода в Соловьевске (Забайкальский край, Россия) (119 км)
Погода в Приаргунске (Забайкальский край, Россия) (149 км)
Погода в Александровском Заводе (Забайкальский край, Россия) (150 км)
Погода в Hailar (Китай) (183 км)
Погода в Оловянной (Забайкальский край, Россия) (195 км)
Погода в Dashbalbar (Монголия) (209 км)
Погода в Балее (Забайкальский край, Россия) (218 км)

Пояснения к столбцам:

Ветер - указаны скорость ветра в м/с - средняя за 10 мин, порывы в срок и между сроками (в фигурных скобках) и направление, откуда дует ветер: С - северный, СВ - северо-восточный, В - восточный, ЮВ - юго-восточный, Ю - южный, ЮЗ - юго-западный, З - западный, СЗ - северо-западный.
Видимость - горизонтальная дальность видимости в метрах или километрах. При видимости от 1 до 10 км при отсутствии осадков обычно наблюдается дымка, при ухудшении видимости до 1 км и менее - туман. В сухую погоду видимость может ухудшаться дымом, пылью или мглою.
Явления - указаны атмосферные явления, наблюдавшиеся в срок или в последний час перед сроком; фигурными скобками обозначены явления, наблюдавшиеся между сроками (за 1-3 часа до срока); квадратными скобками обозначены град или гололедные отложения с указанием их диаметра в мм.
Облачность - указаны через наклонную черту общая и нижняя облачность в баллах и высота нижней границы облаков в метрах; квадратными скобками обозначены формы облаков: Ci - перистые, Cs - перисто-слоистые, Cc - перисто-кучевые, Ac - высококучевые, As - высокослоистые, Sc - слоисто-кучевые, Ns - слоисто-дождевые, Cu - кучевые, Cb - кучево-дождевые. Подробнее классификацию облаков см. в Атласе облаков (PDF).
T - Температура воздуха - температура, измеренная на высоте 2 м над землей.
Td - Температура точки росы - температура, при понижении до которой содержащийся в воздухе водяной пар достигнет насыщения.
f - Относительная влажность воздуха - влажноcть воздуха, измеренная на высоте 2 м над землей.
Te - Эффективная температура - температура, которую ощущает одетый по сезону человек в тени. Характеристика душности погоды. При расчете учитывается влияние влажности воздуха и скорости ветра на теплоощущения человека.
Tes - Эффективная температура на солнце - температура, которую ощущает человек, с поправкой на солнечный нагрев. Характеристика знойности погоды. Зависит от высоты солнца над горизонтом, облачности и скорости ветра. Ночью, в пасмурную погоду, а также при ветре 12 м/с и более поправка равна нулю.
P - Атмосферное давление - приведенное к уровню моря атмосферное давление.
Po - Атмосферное давление - измеренное на уровне метеостанции атмосферное давление.
Tmin - Минимальная температура - минимум температуры воздуха на высоте 2 м над землей.
Tmax - Максимальная температура - максимум температуры воздуха на высоте 2 м над землей.
R - Количество осадков - Количество выпавших осадков за период времени, мм. При наведении курсора мыши на число - период времени, за который выпало указанное количество осадков.
R24 - Количество осадков - Количество выпавших осадков за 24 часа, мм.
S - Снежный покров - Высота снежного покрова, см. При наведении курсора мыши на число - состояние снежного покрова и степень покрытия местности в баллах.